| time (UTC) | temp F | wind direction | speed MPH | gust MPH | rain 1hr in | rain 24hr in | rain mn in | humidity % | barometer mb |
| 20260503233834 | 53 | 270 | 4.0 | 6.0 | 0.00 | 0.00 | 0.00 | 72 | 1008.2 |
| 20260503233341 | 53 | 285 | 3.0 | 6.0 | 0.00 | 0.00 | 0.00 | 72 | 1008.2 |
| 20260503232849 | 53 | 301 | 2.0 | 6.0 | 0.00 | 0.00 | 0.00 | 72 | 1008.3 |
| 20260503232326 | 53 | 268 | 1.0 | 7.0 | 0.00 | 0.00 | 0.00 | 72 | 1008.3 |
| 20260503231832 | 53 | 252 | 2.0 | 7.0 | 0.00 | 0.00 | 0.00 | 72 | 1008.4 |
| 20260503231338 | 53 | 267 | 2.0 | 11.0 | 0.00 | 0.00 | 0.00 | 72 | 1008.4 |
| 20260503230845 | 53 | 295 | 5.0 | 11.0 | 0.00 | 0.00 | 0.00 | 72 | 1008.5 |
| 20260503230404 | 53 | 271 | 4.0 | 7.0 | 0.00 | 0.00 | 0.00 | 72 | 1008.5 |
| 20260503225825 | 53 | 255 | 3.0 | 11.0 | 0.00 | 0.00 | 0.00 | 71 | 1008.5 |
| 20260503225340 | 53 | 276 | 6.0 | 11.0 | 0.00 | 0.00 | 0.00 | 71 | 1008.5 |
| 20260503224837 | 53 | 284 | 6.0 | 14.0 | 0.00 | 0.00 | 0.00 | 71 | 1008.6 |
| 20260503224324 | 53 | 295 | 6.0 | 14.0 | 0.00 | 0.00 | 0.00 | 72 | 1008.7 |
| 20260503223832 | 53 | 291 | 6.0 | 13.0 | 0.00 | 0.00 | 0.00 | 72 | 1008.7 |
| 20260503223329 | 53 | 231 | 5.0 | 13.0 | 0.00 | 0.00 | 0.00 | 73 | 1008.7 |
| 20260503222835 | 53 | 283 | 5.0 | 14.0 | 0.00 | 0.00 | 0.00 | 73 | 1008.8 |
| 20260503222342 | 53 | 285 | 7.0 | 14.0 | 0.00 | 0.00 | 0.00 | 73 | 1008.8 |
| 20260503221845 | 53 | 304 | 5.0 | 12.0 | 0.00 | 0.00 | 0.00 | 73 | 1008.9 |
| 20260503221342 | 53 | 307 | 6.0 | 15.0 | 0.00 | 0.00 | 0.00 | 73 | 1008.9 |
| 20260503220829 | 53 | 254 | 8.0 | 15.0 | 0.00 | 0.00 | 0.00 | 74 | 1009.0 |
| 20260503220347 | 53 | 294 | 6.0 | 12.0 | 0.00 | 0.00 | 0.00 | 74 | 1009.0 |
| 20260503215837 | 53 | 275 | 7.0 | 17.0 | 0.00 | 0.00 | 0.00 | 74 | 1009.1 |
| 20260503215335 | 53 | 297 | 6.0 | 17.0 | 0.00 | 0.00 | 0.00 | 73 | 1009.1 |
| 20260503214822 | 53 | 296 | 5.0 | 16.0 | 0.00 | 0.00 | 0.00 | 73 | 1009.0 |
| 20260503214351 | 53 | 283 | 10.0 | 17.0 | 0.00 | 0.00 | 0.00 | 72 | 1009.1 |
| 20260503213829 | 54 | 292 | 7.0 | 15.0 | 0.00 | 0.00 | 0.00 | 72 | 1009.1 |
| 20260503213334 | 53 | 285 | 9.0 | 15.0 | 0.00 | 0.00 | 0.00 | 71 | 1009.0 |
| 20260503212841 | 53 | 300 | 6.0 | 14.0 | 0.00 | 0.00 | 0.00 | 73 | 1009.0 |
| 20260503212350 | 53 | 280 | 6.0 | 15.0 | 0.00 | 0.00 | 0.00 | 73 | 1009.0 |
| 20260503211829 | 53 | 309 | 8.0 | 15.0 | 0.00 | 0.00 | 0.00 | 73 | 1009.1 |
| 20260503211335 | 53 | 277 | 7.0 | 14.0 | 0.00 | 0.00 | 0.00 | 73 | 1009.0 |
| 20260503210844 | 54 | 292 | 7.0 | 14.0 | 0.00 | 0.00 | 0.00 | 71 | 1009.0 |
| 20260503210350 | 54 | 254 | 7.0 | 14.0 | 0.00 | 0.00 | 0.00 | 70 | 1008.9 |
| 20260503205835 | 55 | 248 | 9.0 | 18.0 | 0.00 | 0.00 | 0.00 | 68 | 1008.8 |
| 20260503205342 | 56 | 295 | 10.0 | 18.0 | 0.00 | 0.00 | 0.00 | 63 | 1008.8 |
| 20260503204849 | 57 | 293 | 9.0 | 15.0 | 0.00 | 0.00 | 0.00 | 59 | 1008.7 |
| 20260503204325 | 57 | 297 | 7.0 | 15.0 | 0.00 | 0.00 | 0.00 | 57 | 1008.6 |
| 20260503203833 | 57 | 271 | 6.0 | 17.0 | 0.00 | 0.00 | 0.00 | 56 | 1008.4 |
| 20260503203340 | 57 | 296 | 10.0 | 17.0 | 0.00 | 0.00 | 0.00 | 56 | 1008.4 |
| 20260503202839 | 58 | 289 | 8.0 | 20.0 | 0.00 | 0.00 | 0.00 | 55 | 1008.5 |
| 20260503202326 | 59 | 258 | 11.0 | 20.0 | 0.00 | 0.00 | 0.00 | 50 | 1008.4 |
| 20260503201834 | 59 | 289 | 11.0 | 17.0 | 0.00 | 0.00 | 0.00 | 49 | 1008.2 |
| 20260503201332 | 58 | 305 | 8.0 | 16.0 | 0.00 | 0.00 | 0.00 | 50 | 1008.2 |
| 20260503200837 | 58 | 281 | 9.0 | 16.0 | 0.00 | 0.00 | 0.00 | 52 | 1008.2 |
| 20260503200355 | 56 | 231 | 7.0 | 15.0 | 0.00 | 0.00 | 0.00 | 55 | 1008.2 |
| 20260503195844 | 54 | 236 | 0.0 | 2.0 | 0.00 | 0.00 | 0.00 | 58 | 1008.3 |
| 20260503195323 | 52 | 286 | 0.0 | 2.0 | 0.00 | 0.00 | 0.00 | 61 | 1008.4 |
| 20260503194830 | 52 | 158 | 0.0 | 2.0 | 0.00 | 0.00 | 0.00 | 61 | 1008.4 |
| 20260503194337 | 51 | 232 | 0.0 | 4.0 | 0.00 | 0.00 | 0.00 | 63 | 1008.5 |
| 20260503193921 | 51 | 119 | 2.0 | 4.0 | 0.00 | 0.00 | 0.00 | 64 | 1008.5 |
| 20260503193323 | 51 | 107 | 2.0 | 5.0 | 0.00 | 0.00 | 0.00 | 63 | 1008.5 |
| 20260503192851 | 52 | 90 | 2.0 | 5.0 | 0.00 | 0.00 | 0.00 | 63 | 1008.5 |
| 20260503192327 | 51 | 113 | 1.0 | 3.0 | 0.00 | 0.00 | 0.00 | 63 | 1008.6 |
| 20260503191835 | 51 | 151 | 1.0 | 4.0 | 0.00 | 0.00 | 0.00 | 63 | 1008.7 |
| 20260503191341 | 50 | 135 | 0.0 | 4.0 | 0.00 | 0.00 | 0.00 | 65 | 1008.8 |
| 20260503190840 | 50 | 93 | 2.0 | 6.0 | 0.00 | 0.00 | 0.00 | 65 | 1008.9 |
| 20260503190358 | 50 | 97 | 4.0 | 8.0 | 0.00 | 0.00 | 0.00 | 64 | 1009.0 |
| 20260503185827 | 50 | 158 | 3.0 | 9.0 | 0.00 | 0.00 | 0.00 | 62 | 1009.1 |
| 20260503185336 | 50 | 127 | 5.0 | 9.0 | 0.00 | 0.00 | 0.00 | 60 | 1009.3 |
| 20260503184834 | 51 | 118 | 3.0 | 8.0 | 0.00 | 0.00 | 0.00 | 58 | 1009.4 |
| 20260503184340 | 51 | 118 | 4.0 | 7.0 | 0.00 | 0.00 | 0.00 | 56 | 1009.6 |
| 20260503183847 | 50 | 111 | 3.0 | 10.0 | 0.00 | 0.00 | 0.00 | 55 | 1009.6 |
| 20260503183325 | 51 | 124 | 4.0 | 10.0 | 0.00 | 0.00 | 0.00 | 53 | 1009.7 |
| 20260503182829 | 50 | 106 | 5.0 | 10.0 | 0.00 | 0.00 | 0.00 | 52 | 1009.7 |
| 20260503182335 | 50 | 130 | 7.0 | 10.0 | 0.00 | 0.00 | 0.00 | 50 | 1009.8 |
| 20260503181833 | 51 | 105 | 6.0 | 10.0 | 0.00 | 0.00 | 0.00 | 48 | 1009.9 |
| 20260503181340 | 51 | 127 | 4.0 | 10.0 | 0.00 | 0.00 | 0.00 | 48 | 1010.1 |
| 20260503180823 | 52 | 92 | 5.0 | 10.0 | 0.00 | 0.00 | 0.00 | 47 | 1010.2 |
| 20260503180340 | 52 | 149 | 5.0 | 10.0 | 0.00 | 0.00 | 0.00 | 46 | 1010.3 |
| 20260503175850 | 52 | 144 | 5.0 | 10.0 | 0.00 | 0.00 | 0.00 | 48 | 1010.3 |
| 20260503175327 | 53 | 152 | 5.0 | 9.0 | 0.00 | 0.00 | 0.00 | 47 | 1010.5 |
| 20260503174834 | 53 | 158 | 5.0 | 9.0 | 0.00 | 0.00 | 0.00 | 47 | 1010.5 |
| 20260503174340 | 54 | 134 | 4.0 | 7.0 | 0.00 | 0.00 | 0.00 | 47 | 1010.6 |
| 20260503173837 | 53 | 193 | 4.0 | 6.0 | 0.00 | 0.00 | 0.00 | 47 | 1010.8 |
| 20260503173322 | 54 | 113 | 3.0 | 7.0 | 0.00 | 0.00 | 0.00 | 47 | 1010.8 |
| 20260503172830 | 53 | 198 | 3.0 | 10.0 | 0.00 | 0.00 | 0.00 | 49 | 1010.8 |
| 20260503172329 | 53 | 127 | 5.0 | 10.0 | 0.00 | 0.00 | 0.00 | 46 | 1010.9 |
| 20260503171835 | 53 | 156 | 2.0 | 8.0 | 0.00 | 0.00 | 0.00 | 47 | 1011.1 |
| 20260503171337 | 52 | 139 | 4.0 | 9.0 | 0.00 | 0.00 | 0.00 | 46 | 1011.1 |
| 20260503170843 | 53 | 128 | 3.0 | 9.0 | 0.00 | 0.00 | 0.00 | 46 | 1011.2 |
| 20260503170401 | 53 | 213 | 6.0 | 12.0 | 0.00 | 0.00 | 0.00 | 43 | 1011.3 |
| 20260503150823 | 46 | 210 | 4.0 | 7.0 | 0.00 | 0.00 | 0.00 | 64 | 1012.9 |
| 20260503150343 | 46 | 167 | 4.0 | 8.0 | 0.00 | 0.00 | 0.00 | 63 | 1013.0 |
| 20260503131327 | 45 | 263 | 3.0 | 6.0 | 0.00 | 0.00 | 0.00 | 58 | 1013.7 |
| 20260503130834 | 44 | 285 | 3.0 | 5.0 | 0.00 | 0.00 | 0.00 | 59 | 1013.6 |
| 20260503130351 | 44 | 293 | 3.0 | 8.0 | 0.00 | 0.00 | 0.00 | 59 | 1013.7 |
| 20260503110356 | 40 | 302 | 0.0 | 0.0 | 0.00 | 0.00 | 0.00 | 65 | 1013.7 |
| 20260503090344 | 36 | 304 | 0.0 | 0.0 | 0.00 | 0.00 | 0.00 | 64 | 1014.1 |
| 20260503081329 | 33 | 304 | 0.0 | 0.0 | 0.00 | 0.00 | 0.00 | 69 | 1014.3 |
| 20260503080850 | 33 | 304 | 0.0 | 0.0 | 0.00 | 0.00 | 0.00 | 69 | 1014.3 |
| 20260503080408 | 33 | 304 | 0.0 | 0.0 | 0.00 | 0.00 | 0.00 | 69 | 1014.3 |
| 20260503072832 | 35 | 304 | 0.0 | 0.0 | 0.00 | 0.00 | 0.00 | 65 | 1014.4 |
| 20260503072340 | 35 | 304 | 0.0 | 0.0 | 0.00 | 0.00 | 0.00 | 64 | 1014.4 |
| 20260503071847 | 35 | 304 | 0.0 | 0.0 | 0.00 | 0.00 | 0.00 | 64 | 1014.4 |
| 20260503071324 | 35 | 304 | 0.0 | 0.0 | 0.00 | 0.00 | 0.00 | 63 | 1014.4 |
| 20260503070832 | 36 | 304 | 0.0 | 0.0 | 0.00 | 0.00 | 0.00 | 62 | 1014.4 |
| 20260503070351 | 36 | 304 | 0.0 | 0.0 | 0.00 | 0.00 | 0.00 | 62 | 1014.4 |
| 20260503054826 | 37 | 302 | 0.0 | 1.0 | 0.00 | 0.00 | 0.00 | 60 | 1014.8 |
| 20260503054333 | 37 | 302 | 0.0 | 0.0 | 0.00 | 0.00 | 0.00 | 60 | 1014.8 |
| 20260503053841 | 37 | 302 | 0.0 | 0.0 | 0.00 | 0.00 | 0.00 | 60 | 1014.9 |
| 20260503053344 | 37 | 302 | 0.0 | 0.0 | 0.00 | 0.00 | 0.00 | 60 | 1014.9 |
| 20260503052842 | 37 | 302 | 0.0 | 0.0 | 0.00 | 0.00 | 0.00 | 60 | 1015.0 |
| 20260503052328 | 38 | 302 | 0.0 | 0.0 | 0.00 | 0.00 | 0.00 | 59 | 1015.0 |
| 20260503051835 | 38 | 302 | 0.0 | 0.0 | 0.00 | 0.00 | 0.00 | 59 | 1015.0 |
| 20260503051333 | 39 | 302 | 0.0 | 0.0 | 0.00 | 0.00 | 0.00 | 58 | 1015.0 |
| 20260503050840 | 39 | 302 | 0.0 | 1.0 | 0.00 | 0.00 | 0.00 | 57 | 1015.0 |
| 20260503050358 | 39 | 302 | 0.0 | 2.0 | 0.00 | 0.00 | 0.00 | 56 | 1015.0 |
| 20260503045829 | 40 | 294 | 1.0 | 2.0 | 0.00 | 0.00 | 0.00 | 56 | 1015.0 |
| 20260503045325 | 40 | 299 | 1.0 | 2.0 | 0.00 | 0.00 | 0.00 | 55 | 1015.0 |
| 20260503044832 | 40 | 302 | 1.0 | 2.0 | 0.00 | 0.00 | 0.00 | 55 | 1015.0 |
| 20260503044340 | 40 | 306 | 0.0 | 0.0 | 0.00 | 0.00 | 0.00 | 55 | 1015.0 |
| 20260503043847 | 40 | 309 | 0.0 | 2.0 | 0.00 | 0.00 | 0.00 | 55 | 1015.0 |
| 20260503043324 | 40 | 293 | 0.0 | 2.0 | 0.00 | 0.00 | 0.00 | 55 | 1015.0 |
| 20260503042831 | 40 | 298 | 1.0 | 3.0 | 0.00 | 0.00 | 0.00 | 55 | 1015.0 |
| 20260503042328 | 41 | 306 | 1.0 | 4.0 | 0.00 | 0.00 | 0.00 | 54 | 1015.0 |
| 20260503041835 | 41 | 319 | 1.0 | 4.0 | 0.00 | 0.00 | 0.00 | 56 | 1015.1 |
| 20260503041324 | 41 | 310 | 1.0 | 3.0 | 0.00 | 0.00 | 0.00 | 54 | 1015.2 |
| 20260503040848 | 41 | 300 | 1.0 | 3.0 | 0.00 | 0.00 | 0.00 | 54 | 1015.2 |
| 20260503040403 | 41 | 290 | 1.0 | 4.0 | 0.00 | 0.00 | 0.00 | 54 | 1015.2 |
| 20260503035824 | 41 | 290 | 2.0 | 5.0 | 0.00 | 0.00 | 0.00 | 54 | 1015.1 |
| 20260503035329 | 41 | 308 | 1.0 | 5.0 | 0.00 | 0.00 | 0.00 | 53 | 1015.1 |
| 20260503034834 | 41 | 304 | 2.0 | 3.0 | 0.00 | 0.00 | 0.00 | 54 | 1015.2 |
| 20260503034331 | 41 | 294 | 1.0 | 2.0 | 0.00 | 0.00 | 0.00 | 54 | 1015.1 |
| 20260503033839 | 42 | 290 | 1.0 | 2.0 | 0.00 | 0.00 | 0.00 | 55 | 1015.1 |
| 20260503033326 | 42 | 297 | 0.0 | 2.0 | 0.00 | 0.00 | 0.00 | 55 | 1015.2 |
| 20260503032824 | 42 | 295 | 1.0 | 2.0 | 0.00 | 0.00 | 0.00 | 56 | 1015.2 |
| 20260503032331 | 42 | 286 | 1.0 | 3.0 | 0.00 | 0.00 | 0.00 | 55 | 1015.1 |
| 20260503031847 | 42 | 297 | 1.0 | 3.0 | 0.00 | 0.00 | 0.00 | 56 | 1015.1 |
| 20260503031324 | 42 | 275 | 0.0 | 2.0 | 0.00 | 0.00 | 0.00 | 56 | 1015.1 |
| 20260503030830 | 42 | 286 | 0.0 | 2.0 | 0.00 | 0.00 | 0.00 | 56 | 1015.1 |
| 20260503030350 | 41 | 268 | 1.0 | 2.0 | 0.00 | 0.00 | 0.00 | 56 | 1015.1 |
| 20260503025838 | 41 | 269 | 1.0 | 2.0 | 0.00 | 0.00 | 0.00 | 56 | 1015.2 |
| 20260503025333 | 42 | 253 | 1.0 | 3.0 | 0.00 | 0.00 | 0.00 | 56 | 1015.2 |
| 20260503024839 | 42 | 274 | 1.0 | 3.0 | 0.00 | 0.00 | 0.00 | 56 | 1015.2 |
| 20260503024325 | 42 | 253 | 2.0 | 3.0 | 0.00 | 0.00 | 0.00 | 57 | 1015.2 |
| 20260503023850 | 42 | 270 | 1.0 | 3.0 | 0.00 | 0.00 | 0.00 | 56 | 1015.3 |
| 20260503022830 | 42 | 283 | 2.0 | 4.0 | 0.00 | 0.00 | 0.00 | 55 | 1015.3 |
| 20260503022337 | 42 | 265 | 1.0 | 4.0 | 0.00 | 0.00 | 0.00 | 55 | 1015.4 |
| 20260503021835 | 42 | 272 | 1.0 | 4.0 | 0.00 | 0.00 | 0.00 | 55 | 1015.4 |
| 20260503021342 | 42 | 237 | 2.0 | 3.0 | 0.00 | 0.00 | 0.00 | 54 | 1015.4 |
| 20260503020829 | 43 | 249 | 1.0 | 3.0 | 0.00 | 0.00 | 0.00 | 54 | 1015.3 |
| 20260503020346 | 43 | 247 | 1.0 | 3.0 | 0.00 | 0.00 | 0.00 | 54 | 1015.3 |
| 20260503015826 | 43 | 266 | 0.0 | 2.0 | 0.00 | 0.00 | 0.00 | 58 | 1015.3 |
| 20260503015333 | 43 | 256 | 1.0 | 2.0 | 0.00 | 0.00 | 0.00 | 54 | 1015.3 |
| 20260503014843 | 43 | 266 | 1.0 | 2.0 | 0.00 | 0.00 | 0.00 | 53 | 1015.2 |
| 20260503014349 | 43 | 266 | 0.0 | 2.0 | 0.00 | 0.00 | 0.00 | 53 | 1015.2 |
| 20260503013827 | 43 | 256 | 1.0 | 2.0 | 0.00 | 0.00 | 0.00 | 53 | 1015.3 |
| 20260503013330 | 44 | 253 | 0.0 | 3.0 | 0.00 | 0.00 | 0.00 | 52 | 1015.3 |
| 20260503012827 | 44 | 250 | 0.0 | 3.0 | 0.00 | 0.00 | 0.00 | 52 | 1015.2 |
| 20260503012335 | 44 | 259 | 0.0 | 5.0 | 0.00 | 0.00 | 0.00 | 53 | 1015.2 |
| 20260503011842 | 44 | 239 | 1.0 | 5.0 | 0.00 | 0.00 | 0.00 | 52 | 1015.2 |
| 20260503011349 | 44 | 266 | 1.0 | 5.0 | 0.00 | 0.00 | 0.00 | 51 | 1015.2 |
| 20260503010826 | 45 | 257 | 2.0 | 6.0 | 0.00 | 0.00 | 0.00 | 50 | 1015.3 |
| 20260503010341 | 45 | 281 | 2.0 | 6.0 | 0.00 | 0.00 | 0.00 | 50 | 1015.2 |
| 20260503005831 | 45 | 264 | 1.0 | 4.0 | 0.00 | 0.00 | 0.00 | 50 | 1015.2 |
| 20260503005337 | 45 | 281 | 2.0 | 4.0 | 0.00 | 0.00 | 0.00 | 50 | 1015.1 |
| 20260503004834 | 45 | 281 | 1.0 | 2.0 | 0.00 | 0.00 | 0.00 | 49 | 1015.1 |
| 20260503004323 | 45 | 285 | 1.0 | 2.0 | 0.00 | 0.00 | 0.00 | 48 | 1015.0 |
| 20260503003830 | 45 | 270 | 1.0 | 5.0 | 0.00 | 0.00 | 0.00 | 48 | 1015.0 |
| 20260503003327 | 45 | 310 | 2.0 | 5.0 | 0.00 | 0.00 | 0.00 | 48 | 1015.0 |
| 20260503002833 | 45 | 326 | 2.0 | 4.0 | 0.00 | 0.00 | 0.00 | 48 | 1015.0 |
| 20260503002340 | 45 | 329 | 1.0 | 5.0 | 0.00 | 0.00 | 0.00 | 48 | 1014.9 |
| 20260503001844 | 46 | 293 | 1.0 | 7.0 | 0.00 | 0.00 | 0.00 | 48 | 1015.0 |
| 20260503001342 | 46 | 323 | 2.0 | 5.0 | 0.00 | 0.00 | 0.00 | 47 | 1015.0 |
| 20260503000829 | 46 | 311 | 2.0 | 7.0 | 0.00 | 0.00 | 0.00 | 48 | 1015.0 |
| 20260503000348 | 46 | 318 | 3.0 | 7.0 | 0.00 | 0.00 | 0.00 | 48 | 1015.1 |
| 20260502235840 | 46 | 305 | 3.0 | 6.0 | 0.00 | 0.00 | 0.00 | 48 | 1015.0 |
| 20260502235337 | 46 | 270 | 4.0 | 9.0 | 0.00 | 0.00 | 0.00 | 49 | 1015.0 |
| 20260502234824 | 46 | 284 | 4.0 | 9.0 | 0.00 | 0.00 | 0.00 | 49 | 1015.0 |
| 20260502234332 | 46 | 313 | 3.0 | 5.0 | 0.00 | 0.00 | 0.00 | 49 | 1015.0 |